Terug naar catalogus

COSMOS 2251 DEB

ActiefLEO
NORAD 34678·DEBRIS·🇷🇺 Russia

Gelanceerd Jun 16, 1993 vanaf Plesetsk Cosmodrome

Loading…

Volgende Passages (komende 24 uur)

TLE

VersSource: Space-Track

Epoch: Sep 14, 2026, 21:45 UTC

1 34678U 93036XY  26257.90685370  .00000007  00000-0  12836-4 0  9990
2 34678  74.0359 223.5997 0025969 209.9243 180.2275 14.30101154913272

Volg COSMOS 2251 DEB in realtime met AllMySat

Download on the App Store